GFSMA_prec_radar_126.txt.gz
Reflectivity
-20 9 -20 4 -18 -20 -19 -20 -20 -20 -20 -20 -20 -20 -20 -20 -20 -20 4 -20 -20 -20 -20 -13 3 3 1 25 5 -0 -20 -20 -8 -6 9 10 -13 -9 13 9 -1 -19 -4
-20 -20 -20 1 -15 0 -10 -20 -20 -10 -20 -20 -20 -20 -19 1 -7 -20 1 -20 -20 -20 -20 -20 -6 -8 -4 13 20 9 8 -20 4 7 -12 14 5 16 1 3 -20 9 -20
-12 -20 -20 -9 -20 -20 4 3 -17 -20 -17 -20 3 -6 -4 3 -20 -18 -1 -20 -20 -20 -20 -20 -20 -20 -20 1 -19 -5 19 8 -18 -8 -8 13 15 11 10 -3 11 15 13
10 10 -20 -10 -20 -20 -20 -4 -17 -19 -14 -20 4 -20 9 10 7 6 -16 14 -20 -20 -20 -20 -20 -20 -20 -20 -9 -15 -20 7 7 -20 15 6 10 6 15 9 10 13 16
-20 -20 -20 0 -20 -4 9 -0 10 9 -13 -4 -20 -2 -12 -7 5 6 4 0 -19 -20 -20 -20 -20 -20 -20 -8 -20 -20 -20 -20 -20 -20 -16 14 4 9 15 -7 11 11 14
-17 -20 -20 1 8 -14 -7 10 6 -6 -13 -20 3 -20 -5 1 7 10 5 1 4 -20 -20 -20 -20 -20 -20 -20 -20 -20 -20 -20 -20 -20 -1 -16 -3 -2 9 10 3 -3 2
-9 -20 -20 -5 -1 6 -4 7 12 11 9 -11 -20 -15 -10 10 -12 2 -20 -20 11 -20 -20 -16 -20 -20 -20 -20 -20 -20 -20 -11 -11 2 -12 -14 -20 -12 13 5 6 5 3
-20 -1 -3 -20 -20 -20 -9 -19 6 4 13 -7 -20 -20 -18 -10 -20 -20 -20 -2 -1 -5 12 5 -20 -20 -20 -20 -20 -20 -20 -0 6 5 24 16 -20 -11 -20 5 -5 2 8
-20 -20 -8 2 -20 -20 1 -20 -14 7 2 -1 -10 -18 -20 -20 -20 -20 -20 -20 -20 -14 -20 13 -20 -20 6 -20 -20 -20 -20 -20 -7 15 17 16 13 -16 -20 -8 -19 8 -3
-20 -19 -3 14 1 3 -20 -11 10 -2 3 -14 -19 -8 -20 -20 -20 -17 -20 -20 -20 -20 -20 -20 -8 -14 8 12 -20 -20 -20 -20 -20 -17 14 -7 8 -15 -3 -2 -20 -20 -4
-20 -20 -4 -4 12 11 -12 -18 10 -2 8 0 -20 -20 -20 -20 -20 -19 -20 -20 -20 -20 -20 -20 -20 -20 -4 -4 7 -20 -20 -20 -20 -20 -20 1 -19 -16 -16 -19 -20 -20 -20
-20 -20 -20 -6 9 10 -2 -20 10 9 11 -2 -13 -20 -20 -17 -20 -20 -20 -20 -20 -20 -20 -20 -20 -20 -20 -20 6 -18 -20 -20 -20 -20 -20 -17 -2 -20 -20 -20 -20 -20 -20
-8 -20 -20 -5 5 14 11 3 9 -2 7 7 -18 -19 -7 2 -4 -20 -20 -20 -20 -14 -20 -20 -10 -20 -20 -20 -20 -20 -20 -20 -20 -20 -20 -9 12 -17 -20 -20 -20 -10 -20
19 1 33 -20 -3 7 5 3 6 18 9 4 17 18 6 4 10 -20 -15 -20 8 -2 -20 -20 -20 -20 -20 -20 -20 -20 -20 -20 -20 -20 -20 -19 -17 -11 -10 -15 5 -20 -20
-0 38 32 10 -6 -17 7 30 2 -0 3 -20 -10 -20 -15 -20 3 24 26 21 21 -20 -20 -20 -15 -20 -20 -20 -20 -20 11 -20 -7 17 -9 -0 14 -11 4 1 -19 -20 -20
36 44 32 24 20 17 26 0 10 13 -1 -10 -20 -14 -10 16 35 35 15 30 26 19 6 -20 -18 -12 -20 -20 -20 -20 -1 19 -4 13 10 -15 11 6 -19 -9 12 11 0
19 35 29 27 29 32 13 30 17 18 13 15 -20 -20 -20 -9 30 41 41 30 27 28 17 -20 -6 23 -12 -20 -20 -20 -20 -20 -14 2 -11 -11 16 19 6 -15 -18 -19 -15
40 38 25 27 27 14 9 2 20 23 29 23 25 14 13 31 26 2 1 7 -3 -6 13 16 20 -20 -20 -20 -20 -20 -20 -6 1 -20 2 18 19 26 15 10 7 -13 -20
29 40 22 26 23 18 16 17 9 16 19 22 23 26 27 28 -11 -14 2 -4 -15 -13 8 8 21 -14 -0 -20 -20 -3 -20 -20 -20 -15 9 4 22 26 30 21 15 -1 -20
29 30 31 24 24 20 19 9 18 18 24 23 25 -4 12 18 19 17 4 -7 11 7 -1 14 29 16 -10 20 -2 -16 -20 8 -20 -11 14 14 12 20 23 24 21 14 9
35 22 19 17 18 27 26 27 22 16 14 19 18 21 18 20 25 20 16 21 24 24 18 3 26 15 28 -17 4 -9 -19 -18 -18 -12 6 15 21 12 11 21 24 20 23
26 31 29 16 12 13 22 9 1 -20 -20 -13 -12 -1 1 22 14 15 19 21 24 18 40 35 8 17 -20 -20 -17 16 -8 -11 -1 -4 6 22 -3 12 12 10 27 30 25
18 9 4 -3 -18 -19 -4 5 -20 -20 -20 -20 -20 -20 -20 -20 5 -20 -11 16 17 24 22 -1 6 -4 9 -15 -20 -20 -20 -2 -20 -15 19 9 10 23 25 28 26 24 28
-6 -20 -20 -20 -20 -10 7 -20 -20 -15 -14 -20 -20 -20 -20 -20 -5 -6 -3 17 32 27 19 3 -5 14 9 4 4 -16 -9 8 5 22 4 13 13 17 27 22 26 24 21
-17 -4 -4 -20 -20 -19 8 3 -20 -20 -20 -20 -20 -20 -20 -20 -16 -3 19 -16 -1 17 27 28 22 23 18 17 27 9 17 22 5 5 15 -4 12 10 12 25 25 28 27
2 3 2 -18 -3 -20 -0 6 4 -20 -20 -20 -20 -20 5 -0 -19 -20 -11 -12 -0 -2 5 26 10 20 22 26 32 26 14 32 15 17 29 15 10 9 26 19 15 18 19

GFSMA_prec_radar_132.txt.gz
Reflectivity
-20 -20 -20 -20 -20 -20 -20 -20 -20 -20 -20 -20 -20 -20 -20 -15 -10 -20 -20 -20 -20 -20 -2 30 -4 -7 9 4 -4 -3 -8 -20 -20 -20 -20 -20 5 17 10 13 14 15 11
-20 -20 -20 -20 -20 -20 -20 -20 -20 -20 -20 -20 -20 -17 -20 -13 7 -20 -20 -20 -20 -20 -9 -5 8 -20 16 -20 9 10 17 -20 -20 -20 -20 1 9 13 13 -6 13 14 15
-20 -20 -20 -20 -20 -20 -20 -20 -20 -20 -20 -20 -20 25 10 7 -20 -20 -20 -20 -20 -20 -20 -20 -20 2 -1 -20 -11 -20 24 -20 -20 -20 -20 -20 7 -5 15 13 14 12 19
-8 -20 -20 -20 -20 -20 -20 -20 -20 -20 -20 -20 -20 -20 -6 8 15 13 -10 -20 -20 -20 -20 -20 -20 -10 -2 -1 -20 -19 -17 -13 -15 -6 -20 -20 12 16 12 12 14 14 17
27 7 -20 -8 -20 -20 -20 -20 -20 -20 -20 -20 15 12 28 -0 4 11 -20 -3 -20 -20 -20 -20 -20 -20 -1 3 7 4 12 -5 17 -0 11 5 -10 9 6 14 11 12 12
35 24 12 12 13 -4 11 11 -20 -20 -20 6 13 10 5 10 7 8 -20 -20 -17 -20 -20 -20 -20 -20 -20 -20 -17 3 -4 23 -10 -18 -20 -20 -20 4 15 7 12 14 11
24 35 17 10 18 12 -9 3 5 15 -1 -11 10 -11 -16 -20 19 -20 15 15 -20 -20 -20 -20 -20 -20 -20 -20 -20 0 -3 -3 3 5 10 1 -20 -20 -20 14 10 12 13
22 32 36 25 12 16 11 8 8 5 6 12 2 9 16 -15 -10 -3 -3 -20 -20 -16 -20 -20 -20 -20 -20 -20 -20 -20 -20 24 18 15 -20 -20 -20 -20 -19 10 2 11 11
22 28 37 27 27 26 10 -20 -18 -9 -20 -0 -20 -5 -6 -7 -20 -20 -20 -20 -20 -20 -20 -20 -20 -20 -20 -20 -20 -20 -20 -20 -15 22 18 9 -20 -20 5 13 24 15 -4
-14 24 27 35 29 27 12 8 -20 -20 -20 -20 -20 1 -20 -20 -20 -20 -20 -20 -20 -20 -20 -20 -20 -20 -20 -20 -20 -20 -20 -20 -20 -20 12 21 16 -20 2 -15 10 12 4
-20 19 23 29 31 29 22 12 9 -20 -20 -20 -20 -15 -20 -20 -20 -20 -20 -20 -20 -20 -20 -20 -20 -20 -20 -20 -20 -20 -20 -20 -20 -20 -20 10 22 7 -18 13 -20 -20 5
-20 -20 23 31 38 32 5 10 10 -20 -20 -20 -20 -20 -20 -20 -20 -20 -20 -20 -20 -20 -20 -20 -20 -20 -20 -20 -20 -20 -20 -20 -20 -20 -20 -20 6 18 -17 -20 -20 -20 -5
-20 -20 -13 30 46 39 11 27 15 -9 -20 -20 -20 -20 -6 -17 -20 -20 -20 -20 -20 -20 -20 -20 -20 -20 -20 -20 -20 -20 -20 -20 -20 -20 -20 -20 -20 1 6 -20 -20 -20 -20
-20 -20 -20 26 32 43 31 -0 -1 2 -4 -20 -20 -7 -15 -11 9 -3 -20 -20 -20 -20 -20 -20 13 -20 -20 -17 -20 -20 -20 -20 -20 -20 -20 -20 -20 -20 -14 -20 -20 -20 -12
-20 -20 -20 -10 33 39 42 1 -19 23 -9 1 -20 -16 3 8 8 9 -18 -20 -13 -16 -16 -20 -20 -20 -20 -20 -11 -20 -20 -20 -20 -20 -20 -20 -20 -20 -20 -20 -9 -20 -20
-20 -20 -20 -18 25 42 43 27 -7 11 9 4 20 13 6 14 15 0 6 -9 11 13 15 -20 -20 -18 16 5 10 24 22 -0 -14 -20 -20 -20 -20 -20 -20 -20 -7 16 26
12 -20 -20 -8 9 28 39 28 21 26 9 17 9 12 6 14 15 7 15 16 22 26 25 -11 -20 -20 -2 21 27 26 24 27 21 -11 1 15 -20 -20 -20 -20 -20 -11 16
-20 -20 -20 -0 22 25 45 36 29 26 20 18 10 0 5 22 -12 19 36 23 1 29 35 -13 -20 -20 -20 22 15 -3 8 8 -1 -16 -20 -15 -2 11 -20 11 16 9 10
16 -20 -15 9 22 29 40 42 25 36 29 7 22 26 31 27 9 16 4 -5 26 34 28 23 12 -20 -20 -20 -20 -7 -20 -20 -20 4 9 -2 10 -15 -20 -20 -14 13 -11
13 -11 -2 16 36 43 48 44 37 40 41 24 17 23 35 22 11 11 14 14 12 22 12 24 20 -11 -9 -19 -0 -2 3 -20 -20 -20 15 -3 3 -17 -3 -6 -8 -20 -10
-13 -16 -9 13 35 45 47 39 33 44 48 33 36 30 42 36 21 23 13 20 -20 -20 -10 20 1 8 7 19 1 -2 4 4 -4 13 15 -4 -20 -20 -5 12 4 -5 -1
-20 -9 6 17 27 37 40 42 43 41 43 36 39 35 22 27 30 18 21 39 14 5 -20 -20 -20 -20 3 7 -4 12 15 21 25 15 -2 -3 -20 -20 -20 -20 16 2 -6
-9 7 13 24 34 32 31 33 41 39 37 40 42 36 30 32 25 27 30 17 21 7 18 -19 -20 -20 -19 -7 -20 8 -6 18 28 13 23 8 -20 -20 -20 -13 6 11 6
-18 -5 11 11 23 21 19 20 19 22 23 17 22 19 18 8 -5 -20 -20 -20 -20 -20 -20 -20 -20 -20 -18 -10 -19 -18 7 -1 1 21 17 14 -19 -20 -20 -7 13 7 -7
4 3 -1 -5 5 1 -1 -7 -10 -9 3 5 4 5 -3 -9 -11 -5 -20 -20 -20 -20 -20 -20 -20 -20 -20 -3 -7 -20 -18 3 11 1 21 22 8 2 -18 0 -1 24 -2
-19 -20 -18 -10 -12 -20 -2 0 -10 -19 -9 -2 -1 -9 5 -20 -13 -20 -20 -20 -20 -20 -20 -20 -20 -20 -20 -20 -16 -13 -20 -20 -15 -20 -7 15 -5 2 4 8 15 15 -0

GFSMA_prec_radar_135.txt.gz
Reflectivity
-13 -3 -17 -20 4 -20 -20 -20 -20 -20 -20 -20 -20 -20 -20 -20 -20 -20 -20 -20 -20 -20 -20 -20 -17 14 27 25 25 5 9 -8 -18 -20 -20 -20 -20 15 9 11 15 6 5
35 -19 -20 -20 6 -20 -20 -20 -20 -20 -20 -20 -20 -20 -20 -20 -20 -20 -20 -20 -20 -20 -20 -20 -20 28 27 26 21 5 -20 -12 16 -20 -20 -20 -10 -3 12 13 13 13 16
-13 19 -9 -19 -20 4 -20 -20 -20 -20 -20 -20 -20 -20 -20 -20 -20 -20 -20 -20 -20 -20 -20 -20 -20 -20 -19 28 23 23 -20 -20 6 -20 -20 -20 -13 -20 12 12 13 13 7
-17 -12 35 -8 -12 -3 -17 -20 -20 -20 -20 -20 -20 -20 -20 22 -14 -20 -20 -20 -20 -20 -20 -20 -20 -20 -8 -20 -20 9 -8 -20 11 -18 -20 -20 -20 -20 -1 13 13 15 12
-20 -20 24 30 -5 -19 -7 -9 -4 -20 -20 -20 -20 -20 -20 -3 -0 -16 9 -4 -20 -20 -20 -20 -20 -20 -20 -20 23 28 -20 -20 -20 -20 -20 7 -18 9 12 4 15 13 14
-20 0 28 27 23 1 25 19 15 -19 -20 -20 -20 -10 -15 14 15 -20 -13 -20 -20 -20 -20 -20 -20 -20 -20 -20 -13 7 -16 28 1 -20 15 -14 -19 15 4 16 5 14 10
-20 -20 17 29 32 32 -18 3 27 22 -20 -20 -20 -20 21 21 21 17 -15 -20 -20 -15 -20 -20 -20 -20 -20 -20 4 -20 -7 -5 27 22 14 -20 -20 -20 -20 -20 -20 20 21
-20 -5 10 29 36 26 11 -7 14 8 17 23 -19 -16 4 -17 -20 -13 16 4 -20 -20 -20 -20 -20 -20 -20 -20 -20 -20 -20 -20 2 24 21 -11 -20 -20 -20 -20 -20 -20 13
-20 -20 -20 13 14 31 25 20 -6 -17 -17 25 -18 -20 -20 -16 -20 -20 -12 -20 -20 -20 -20 -20 -20 -20 -20 -20 -20 -20 -20 -20 -20 20 20 -6 -15 -20 -16 -20 -20 -11 11
-20 -20 -20 -20 24 43 39 31 -8 -10 27 -3 24 12 -20 -20 -20 -20 -20 -20 -20 -20 -20 -20 -20 -20 -20 -20 -20 -20 -20 -20 -20 -20 -20 -10 20 -20 0 -4 -20 4 6
-20 -20 -20 -20 10 27 48 31 31 26 -8 27 -17 -11 -20 -20 -20 -20 -20 -20 -20 -20 -20 -20 -20 -20 -20 -20 -20 -20 -20 -20 -20 -20 -20 2 15 15 -20 -16 -18 -14 -18
-20 -20 -20 -20 -20 11 39 38 22 -14 13 29 10 -14 -5 0 -20 -20 -20 -20 -20 -20 -20 -20 -20 -20 -20 -20 -20 -20 -20 -20 -20 -20 -20 -20 -20 2 14 -17 -3 -12 10
-20 -20 -20 -20 -20 -18 10 37 44 21 31 30 -12 -20 -15 -13 -20 -20 -20 -20 -20 -20 -20 -20 -20 -20 -20 -20 -20 -20 -20 -20 -20 -20 -20 -20 -20 -20 -20 -20 14 13 9
-15 -20 -20 -20 -20 -20 2 29 45 42 30 18 23 -5 -20 8 -20 -20 -20 -20 -20 -20 -20 -20 -20 -20 -20 -20 -20 -19 -20 -10 -20 -20 -20 -20 -20 -20 -20 -19 19 6 -1
-4 17 -20 -20 -20 -20 -6 30 35 34 37 31 29 26 1 27 -16 25 -19 -20 2 6 -20 -20 -20 -20 -20 -20 -20 4 -20 -3 -4 -20 -20 -20 -20 -20 -20 -20 -10 2 4
7 -8 -14 -20 -20 -20 -20 15 23 34 44 25 29 26 9 15 22 19 13 10 10 2 -6 -20 -20 -4 7 -20 -20 -20 4 31 -12 -20 -20 -20 -20 -20 -20 -20 -20 -1 -9
12 6 8 -20 -20 -20 -20 4 26 41 38 24 30 27 -2 -4 21 3 9 13 15 9 -11 -20 -20 -20 -20 -20 -20 -20 -20 23 8 20 -20 -20 -20 -12 -18 -20 -20 -20 -14
-14 -20 -19 -20 -20 -20 -20 9 10 12 30 35 29 30 29 26 -6 18 13 14 15 13 3 -18 -20 -3 12 -19 -20 -16 -9 24 27 20 8 6 24 -20 -19 3 -19 19 15
31 12 -20 -20 -20 -20 -7 2 8 11 31 36 30 24 5 17 9 24 21 20 20 15 9 31 28 29 31 5 -19 -20 -20 -14 -20 -17 9 3 23 -12 -13 3 -11 -11 -20
34 26 -13 -20 -20 -20 -18 -20 9 17 30 38 40 43 20 28 19 15 10 17 21 21 23 22 23 37 18 28 20 -13 -18 -20 -20 -20 -20 -6 21 14 18 15 -20 -6 -20
32 35 34 10 -18 15 3 -17 8 23 37 35 39 34 36 33 38 6 15 28 41 30 32 19 39 25 2 12 23 -6 -9 -5 -11 -20 -20 -20 -6 19 16 13 11 4 -20
33 21 20 21 -2 1 1 -2 13 22 32 41 39 40 38 45 41 42 28 37 39 45 14 9 3 28 -1 3 9 8 1 -15 -18 -4 -1 -10 -20 12 2 16 -3 -14 -20
21 23 20 14 -12 -14 -12 -2 13 23 32 34 36 39 39 41 43 39 34 26 33 33 31 26 34 30 27 5 -5 -4 9 -20 -20 -20 -4 -11 16 -5 -0 -4 4 11 10
6 -8 -13 -3 3 2 5 9 12 21 24 27 31 31 27 25 30 35 39 39 31 35 35 37 30 27 30 -18 -17 -20 -20 -20 -20 -20 24 13 18 4 -16 -17 2 -20 -20
-14 -8 -8 0 3 5 8 12 10 12 14 9 8 12 11 12 12 13 18 12 3 1 14 17 4 -20 -20 -17 -20 -20 -20 -20 -20 -19 -20 -20 -18 -9 2 6 -8 9 -20
-20 -20 -19 -8 -3 6 7 9 -9 5 1 3 3 4 5 4 9 11 11 12 8 8 7 2 -4 -20 -20 -18 7 -13 -20 -20 -20 -20 -20 -20 -17 -1 -18 -17 -11 -20 -13

GFSMA_prec_radar_141.txt.gz
Reflectivity
-20 -20 11 12 -18 -14 3 -2 -10 -20 -20 -20 -9 -20 -20 -20 -20 -20 -20 -20 -20 -20 -20 -17 -19 24 -19 -11 -19 2 19 21 20 -20 -20 -20 -20 -20 -20 -20 -20 11 13
-20 -20 -20 6 11 -7 -13 15 -20 -6 -20 -20 -20 -2 -20 -20 -20 -20 -20 -20 -20 -20 -20 -20 -20 32 2 27 -20 17 1 24 14 -20 -20 -20 -20 -20 -20 -20 -20 14 -20
-20 -20 -20 -20 8 12 -7 2 28 7 -20 -20 -20 -8 -20 -20 -20 -20 -20 -20 -19 -20 -20 -20 -20 -20 -20 19 -12 4 -20 -9 10 -15 18 -20 -20 -20 -20 -20 -20 11 0
-20 -20 -20 -20 -13 11 19 13 -9 28 -20 -20 -20 -8 -20 -20 -20 -20 -20 -20 -20 -20 -20 -20 -20 -20 -20 -20 -18 -20 -3 -20 -20 -7 -20 -19 -7 -20 -20 -20 -20 -20 1
-20 -20 -20 -20 -20 -20 4 19 11 33 26 8 -20 -11 -16 -20 -20 -20 -20 -20 -20 -20 -20 -20 -20 -20 -20 -20 -20 16 13 18 8 -20 -20 -2 -20 -20 -20 -20 -20 -20 -20
-20 -20 -20 -20 -20 -20 -20 19 -7 20 15 1 -7 -7 -9 -20 -20 -20 -20 -20 -20 -20 -20 -20 -20 -20 -20 -20 -20 -20 14 10 -20 11 -14 -20 -20 -20 -20 -20 -20 -20 -20
-20 -6 -2 -10 -20 -20 -20 -6 -8 26 33 25 21 22 -20 5 -4 -8 -20 -20 -20 -20 -20 -20 -20 -20 -20 -20 -20 -20 -20 -2 17 -17 8 -20 -20 -20 -20 -20 -17 -20 -20
-20 -20 -17 1 4 4 3 -14 17 10 21 30 24 -4 9 14 -3 -13 0 -17 22 7 -20 -20 -20 -20 -20 -20 -20 -20 -20 10 -0 6 -20 -20 -20 -20 -20 -20 -20 -20 -20
-17 -20 -20 -5 7 3 6 -20 -2 -20 -3 43 36 2 19 0 -20 -1 -10 -14 -20 -20 8 -20 -20 -20 -20 -20 -20 -20 -20 -20 -20 -20 2 -20 -20 -20 -20 -20 -20 -20 -20
2 -20 -20 -18 -20 4 2 -7 -7 -18 19 40 42 33 17 -20 9 15 -15 2 -20 -20 -20 -20 -20 -20 -20 -20 -20 -20 -20 -20 -20 -20 -20 3 -20 -20 -20 -20 -20 -20 -20
2 5 -18 -20 -15 9 -20 -20 -20 -3 4 18 33 42 25 -20 13 8 -20 -16 -19 -19 -20 -20 -20 -20 -20 -20 -20 -20 -20 -20 -20 -20 -20 -20 -20 -20 -20 -20 -20 -20 -20
-14 -1 4 8 -9 -11 -20 -20 -19 -3 2 9 22 31 35 11 -20 -20 -20 -20 -20 -20 -20 -20 -20 -20 -20 -20 -20 -20 -15 -3 -9 -20 -20 -20 -20 -20 -20 -20 -20 -5 -13
-17 2 1 14 14 4 -20 -8 -8 5 10 9 15 24 32 26 26 -20 -20 -13 -20 -20 -7 -20 -20 -20 -20 -20 -20 -20 -16 5 -4 -10 -20 -20 -20 -20 -20 -20 -20 -20 12
5 6 6 -8 -9 -15 6 -3 5 4 13 -15 2 -8 27 22 18 23 -7 11 -20 -20 -20 -20 -20 -20 -20 -20 -20 -19 -20 -3 -4 1 -1 -20 -20 -20 -20 -20 -20 -15 -20
2 7 5 12 4 12 8 4 9 -2 8 -18 -12 8 22 39 33 28 23 24 18 2 -20 -20 -20 -20 -20 -20 -20 -20 -20 -20 -1 -5 5 -4 -19 -20 -20 -20 -20 -4 6
14 9 11 15 16 -1 -14 -9 -20 4 11 -5 -15 5 14 11 36 37 31 26 24 16 -20 -9 -20 -20 -20 -20 -20 -20 -20 -11 -6 5 3 8 3 -8 -20 -20 -20 -20 -20
14 13 2 14 21 12 6 -14 -18 3 10 -11 -10 5 -0 8 13 42 41 32 29 26 15 -20 2 -20 -20 -20 -20 -20 -20 -9 -14 9 8 9 9 9 8 7 -20 -20 -20
8 10 14 23 25 4 11 -2 -3 -10 -5 -20 -20 -20 -3 -2 19 26 34 35 31 28 28 -20 25 20 -20 -20 -20 -20 -20 -20 -20 -10 10 6 8 9 19 18 22 14 -20
16 12 8 14 21 17 -5 7 19 17 22 -12 -10 -20 -10 15 2 10 36 41 35 25 17 28 24 17 24 -11 -20 -20 -12 -20 -20 -14 4 9 9 10 9 5 -4 8 2
24 27 24 20 21 20 16 7 3 15 16 24 27 7 -4 4 -0 28 36 18 37 38 32 31 30 28 24 10 -20 -20 -7 -20 0 -20 6 3 -6 -9 -3 10 4 -3 3
21 30 31 32 23 23 24 21 20 16 19 21 28 29 21 24 19 -4 6 28 38 39 39 34 33 40 29 12 10 -12 18 8 -4 -20 -12 -8 9 15 11 10 16 4 10
14 13 18 18 16 24 26 22 23 30 24 27 34 26 27 25 28 29 24 29 21 33 17 36 34 34 34 19 19 -4 -0 -13 4 14 1 -19 15 26 15 3 18 -4 10
10 13 17 20 24 22 17 16 21 25 32 34 33 33 27 27 27 21 26 25 21 24 23 25 32 35 41 22 33 31 29 19 32 36 25 5 29 28 24 -2 17 -7 -0
-2 10 11 14 7 5 -1 10 20 23 17 23 26 29 23 18 4 8 1 13 19 20 28 29 31 31 29 26 27 37 36 19 22 30 25 29 35 35 35 20 8 -16 -19
-20 -20 -8 10 2 -2 -17 -11 -2 18 15 14 16 13 15 11 12 4 -7 -1 1 14 13 13 18 24 23 20 30 34 31 33 37 34 33 37 35 31 32 18 23 2 -15
-20 -12 -20 -20 2 -3 -20 -8 -8 -11 4 -3 11 9 1 3 -10 -4 -2 5 4 5 9 14 14 11 14 12 13 17 8 9 17 18 19 5 11 23 20 10 -1 -19 -20